EW0802 Weather Reports


Display with metric or nautical units.
time (UTC)temp
F
wind
direction
speed
MPH
gust
MPH
rain 1hr
in
rain 24hr
in
rain mn
in
humidity
%
barometer
mb
20260906150010 87 113 0.0 2.0 0.00 0.00 0.00 69 1012.5
20260906144626 86 159 1.0 3.0 0.00 0.00 0.00 71 1012.3
20260906143111 84 68 0.0 0.0 0.00 0.00 0.00 75 1012.4
20260906141554 82 131 0.0 0.0 0.00 0.00 0.00 78 1012.4
20260906140049 80 94 0.0 0.0 0.00 0.00 0.00 80 1012.3
20260906134550 79 132 0.0 0.0 0.00 0.00 0.00 81 1012.2
20260906133047 78 151 0.0 0.0 0.00 0.00 0.00 82 1012.2
20260906131549 78 143 0.0 0.0 0.00 0.00 0.00 82 1012.2
20260906130044 78 161 0.0 0.0 0.00 0.00 0.00 82 1012.1
20260906124537 77 250 0.0 0.0 0.00 0.00 0.00 82 1011.9
20260906123037 77 250 0.0 0.0 0.00 0.00 0.00 81 1011.9
20260906121532 77 250 0.0 0.0 0.00 0.00 0.00 81 1011.8
20260906120030 77 184 0.0 0.0 0.00 0.00 0.00 81 1011.7
20260906114533 78 184 0.0 0.0 0.00 0.00 0.00 80 1011.5
20260906113039 78 184 0.0 0.0 0.00 0.00 0.00 79 1011.3
20260906111530 78 184 0.0 0.0 0.00 0.00 0.00 79 1011.2
20260906110023 78 184 0.0 0.0 0.00 0.00 0.00 79 1011.1
20260906104521 79 184 0.0 0.0 0.00 0.00 0.00 78 1011.1
20260906103020 79 184 0.0 0.0 0.00 0.00 0.00 78 1011.1
20260906101517 79 184 0.0 0.0 0.00 0.00 0.00 77 1010.9
20260906100017 80 184 0.0 0.0 0.00 0.00 0.00 77 1010.7
20260906094525 80 184 0.0 0.0 0.00 0.00 0.00 76 1010.5
20260906093013 80 184 0.0 0.0 0.00 0.00 0.00 76 1010.4
20260906091523 81 153 0.0 0.0 0.00 0.00 0.00 75 1010.4
20260906090010 81 153 0.0 0.0 0.00 0.00 0.00 75 1010.4
20260906084517 81 143 0.0 0.0 0.00 0.00 0.00 74 1010.3
20260906083020 82 131 0.0 1.0 0.00 0.00 0.00 74 1010.3
20260906081519 82 221 0.0 4.0 0.00 0.00 0.00 74 1010.3
20260906080004 82 159 0.0 4.0 0.00 0.00 0.00 73 1010.4
20260906074503 82 178 0.0 5.0 0.00 0.00 0.00 73 1010.5
20260906073000 83 130 0.0 3.0 0.00 0.00 0.00 73 1010.4
20260906071609 83 207 1.0 5.0 0.00 0.00 0.00 72 1010.5
20260906070057 83 134 0.0 5.0 0.00 0.00 0.00 72 1010.7
20260906064556 84 146 1.0 5.0 0.00 0.00 0.00 72 1010.7
20260906063054 84 157 2.0 6.0 0.00 0.00 0.00 71 1010.8
20260906061552 84 165 0.0 2.0 0.00 0.00 0.00 71 1011.0
20260906060050 84 145 0.0 4.0 0.00 0.00 0.00 71 1011.0
20260906054554 85 186 1.0 4.0 0.00 0.00 0.00 71 1010.9
20260906053046 85 168 1.0 4.0 0.00 0.00 0.00 70 1010.7
20260906051551 85 144 0.0 5.0 0.00 0.00 0.00 70 1010.7
20260906050109 85 134 1.0 6.0 0.00 0.00 0.00 69 1010.7
20260906044543 85 165 0.0 3.0 0.00 0.00 0.00 68 1010.8
20260906043042 86 161 0.0 2.0 0.00 0.00 0.00 67 1010.7
20260906041542 86 152 0.0 3.0 0.00 0.00 0.00 66 1010.6
20260906040045 86 128 0.0 3.0 0.00 0.00 0.00 65 1010.5
20260906034543 87 134 1.0 3.0 0.00 0.00 0.00 65 1010.6
20260906033040 87 121 1.0 7.0 0.00 0.00 0.00 64 1010.6
20260906031543 87 137 1.0 8.0 0.00 0.00 0.00 63 1010.7
20260906030040 87 192 1.0 7.0 0.00 0.00 0.00 63 1010.6
20260906024539 88 135 2.0 8.0 0.00 0.00 0.00 62 1010.6
20260906023039 88 86 0.0 7.0 0.00 0.00 0.00 62 1010.4
20260906021541 88 117 0.0 5.0 0.00 0.00 0.00 61 1010.1
20260906020038 89 152 1.0 4.0 0.00 0.00 0.00 60 1010.0
20260906014537 89 171 1.0 7.0 0.00 0.00 0.00 58 1009.7
20260906013036 90 161 2.0 10.0 0.00 0.00 0.00 57 1009.4
20260906011537 91 175 1.0 9.0 0.00 0.00 0.00 55 1009.2
20260906010035 92 188 2.0 13.0 0.00 0.00 0.00 52 1009.1
20260906004537 95 127 3.0 12.0 0.00 0.00 0.00 47 1009.0
20260906003035 96 119 0.0 4.0 0.00 0.00 0.00 43 1008.7
20260906001535 96 140 0.0 3.0 0.00 0.00 0.00 42 1008.7
20260906000034 97 45 2.0 5.0 0.00 0.00 0.00 41 1008.6
20260905234534 98 126 0.0 1.0 0.00 0.00 0.00 40 1008.5
20260905233032 99 93 0.0 1.0 0.00 0.00 0.00 39 1008.4
20260905231534 100 150 0.0 2.0 0.00 0.00 0.00 38 1008.6
20260905230031 100 178 2.0 8.0 0.00 0.00 0.00 37 1008.4
20260905224530 100 59 1.0 3.0 0.00 0.00 0.00 38 1008.4
20260905223030 100 130 0.0 3.0 0.00 0.00 0.00 38 1008.4
20260905221527 100 153 0.0 2.0 0.00 0.00 0.00 38 1008.5
20260905220029 101 115 0.0 2.0 0.00 0.00 0.00 38 1008.6
20260905214524 101 65 1.0 3.0 0.00 0.00 0.00 37 1008.8
20260905213023 101 252 1.0 3.0 0.00 0.00 0.00 37 1008.9
20260905211521 101 181 1.0 3.0 0.00 0.00 0.00 38 1009.2
20260905210017 101 360 1.0 3.0 0.00 0.00 0.00 39 1009.3
20260905204514 100 138 1.0 7.0 0.00 0.00 0.00 39 1009.4
20260905203011 100 71 2.0 6.0 0.00 0.00 0.00 38 1009.6
20260905201510 99 136 1.0 7.0 0.00 0.00 0.00 41 1009.7
20260905200009 99 59 0.0 3.0 0.00 0.00 0.00 40 1010.0
20260905194507 100 117 1.0 5.0 0.00 0.00 0.00 40 1010.3
20260905193002 98 290 0.0 8.0 0.00 0.00 0.00 42 1010.6
20260905191614 97 72 1.0 3.0 0.00 0.00 0.00 43 1010.8
20260905190057 98 140 0.0 2.0 0.00 0.00 0.00 43 1011.1
20260905184609 99 42 1.0 3.0 0.00 0.00 0.00 42 1011.3
20260905183054 98 163 2.0 6.0 0.00 0.00 0.00 42 1011.5
20260905181553 98 287 0.0 4.0 0.00 0.00 0.00 43 1011.8
20260905180053 98 284 0.0 3.0 0.00 0.00 0.00 44 1012.1
20260905174552 98 236 1.0 6.0 0.00 0.00 0.00 44 1012.3
20260905173045 98 68 0.0 6.0 0.00 0.00 0.00 44 1012.4
20260905171541 97 252 1.0 5.0 0.00 0.00 0.00 45 1012.5
20260905170036 96 276 0.0 3.0 0.00 0.00 0.00 48 1012.6
20260905164537 95 63 0.0 4.0 0.00 0.00 0.00 51 1012.9
20260905163027 94 229 1.0 3.0 0.00 0.00 0.00 52 1012.9
20260905161523 93 265 1.0 5.0 0.00 0.00 0.00 53 1012.8
20260905160036 93 66 0.0 4.0 0.00 0.00 0.00 54 1012.8
20260905154515 91 108 0.0 3.0 0.00 0.00 0.00 58 1012.8
20260905153012 89 161 1.0 4.0 0.00 0.00 0.00 59 1012.9
20260905151508 88 249 1.0 3.0 0.00 0.00 0.00 61 1012.7